Home > Weather > Camrose > Past weeks

Flag for Canada Past Weather in Camrose, Alberta, Canada — Yesterday and Last 2 Weeks

Now
52 °F

Passing clouds.


Feels Like: 51 °F
Forecast: 56 / 74 °F
Wind: 5 mph from South

Location: Edmonton International

Current Time: Jul 1, 2016 at 2:05:04 AM

Latest Report: Jul 1, 2016 at 1:00 AM


Visibility: 15 mi

Pressure: 30.03 "Hg (27.46 "Hg at 744m altitude)

Humidity: 94%

Dew Point: 50 °F

Location of CamroseLocation

Past Weather in Camrose — Graph

°F

Camrose Temperature Yesterday

Maximum temperature yesterday: 73 °F (at 12:49 PM)
Minimum temperature yesterday: 57 °F (at 11:00 PM)
Average temperature yesterday: 64 °F

High & Low Weather Summary for the Past Weeks

 TemperatureHumidityPressure
High79 °F (Jun 29, 2:00 PM)100% (Jun 23, 5:00 AM)30.26 "Hg (Jun 23, 5:00 AM)
Low36 °F (Jun 16, 3:03 AM)27% (Jun 20, 5:00 PM)29.69 "Hg (Jun 16, 1:00 AM)
Average60 °F70%30.00 "Hg
* Reported Jun 16 1:00 AM — Jul 1 1:00 AM, Camrose, Weather by CustomWeather, © 2016

Note: Actual official high and low records may vary slightly from our data, if they occured in-between our weather recording intervals... More about our weather records

Advertising

Camrose Weather History for the Previous 24 Hours

Scroll right to see more
 ConditionsComfort  
Time TempWeatherWind HumidityBarometerVisibility
1:00 AM
Fri, Jul 1
52 °FPassing clouds.5 mph94%30.03 "Hg15 mi
12:00 AM55 °FPartly cloudy.8 mph88%30.01 "Hg15 mi
11:00 PM
Thu, Jun 30
57 °FThunderstorms. Cloudy.7 mph88%30.01 "Hg15 mi
10:00 PM63 °FPartly sunny.5 mph94%30.01 "Hg15 mi
9:00 PM63 °FMostly cloudy.3 mph88%30.02 "Hg15 mi
8:00 PM64 °FCloudy.2 mph83%30.01 "Hg15 mi
7:00 PM64 °FMostly cloudy.12 mph83%30.00 "Hg15 mi
6:00 PM64 °FCloudy.15 mph83%30.02 "Hg15 mi
5:00 PM64 °FBroken clouds.15 mph83%30.02 "Hg15 mi
4:00 PM61 °FSprinkles. Broken clouds.10 mph88%30.03 "Hg15 mi
3:00 PM61 °FThunderstorms. Broken clouds.8 mph94%30.02 "Hg15 mi
2:00 PM59 °FThunderstorms. Mostly cloudy.6 mph94%30.02 "Hg10 mi
1:00 PM72 °FThunderstorms. Broken clouds.20 mph69%29.97 "Hg15 mi
12:49 PM73 °FThunderstorms. Broken clouds.23 mph65%29.97 "Hg15 mi
12:00 PM72 °FBroken clouds.21 mph69%30.00 "Hg15 mi
11:00 AM72 °FBroken clouds.18 mph69%30.02 "Hg15 mi
10:00 AM70 °FBroken clouds.17 mph69%30.04 "Hg15 mi
9:00 AM66 °FBroken clouds.17 mph78%30.04 "Hg15 mi
8:00 AM64 °FPartly sunny.14 mph78%30.05 "Hg15 mi
7:00 AM63 °FBroken clouds.16 mph83%30.07 "Hg15 mi
6:00 AM61 °FPassing clouds.14 mph83%30.07 "Hg15 mi
5:00 AM61 °FMostly cloudy.15 mph83%30.07 "Hg15 mi
4:00 AM61 °FPartly cloudy.13 mph83%30.08 "Hg15 mi
3:00 AM63 °FPartly cloudy.12 mph77%30.11 "Hg15 mi
2:00 AM63 °FPartly cloudy.14 mph77%30.11 "Hg15 mi
Weather by CustomWeather, © 2016

See weather overviewHow to use our weather pages